Regional Weather Roundup
Issued by NWS

Home | Current Version | Previous Version | Text Only | Print | Product List | Glossary On
Versions: 1 2 3 4 5 6 7 8 9 10 11 12 13 14 15 16 17 18 19 20 21 22 23 24 25 26 27 28 29 30 31 32 33 34 35 36 37 38 39 40 41 42 43 44 45 46 47 48 49 50
970
ASUS42 KTBW 290616
RWRFL
FLORIDA REGIONAL WEATHER ROUNDUP
NATIONAL WEATHER SERVICE TAMPA BAY RUSKIN FL
200 AM EDT FRI APR 29 2016

NOTE: "FAIR" INDICATES FEW OR NO CLOUDS BELOW 12,000 FEET WITH NO
SIGNIFICANT WEATHER AND/OR OBSTRUCTIONS TO VISIBILITY.

FLZ001>010-012>015-112-114-115-290700-
PANHANDLE FLORIDA

CITY           SKY/WX    TMP DP  RH WIND       PRES   REMARKS
PENSACOLA      CLEAR     68  66  93 CALM      29.97F
MILTON NAS     CLOUDY    67  67 100 SW3       29.98
CRESTVIEW      PTCLDY    65  63  93 CALM      29.99S
PANAMA CITY    FOG       68  67  96 CALM      29.97S VSB 1/4
APALACHICOLA   MOCLDY    75  75 100 S7        29.97F

STATION/POSITION SKY/WX   TEMP    WIND        PRES    WAVE   SWELL
                          AIR SEA DIR/SP/G            HT/PER HT/PER
                          (F)     (DEG/KT/KT) (MB)    (FT/S) (FT/S)
30.1N   87.6W              74 73  100/  4/  4 1013.9F   2/ 6   2/ 6
29.2N   88.2W              74 73  110/ 10/ 12 1014.6S
28.8N   86.0W              78 78  170/  8/  8 1015.3F   3/ 6   3/ 6
PANAMA CITY BEAC           74 76  170/  3/  3 1015.4S
TOWER C                    74     210/  8/  9 1015.5F
28.5N   84.5W              75 75  160/  6/  6 1014.8F   2/ 6   2/ 6

$$
FLZ011-016>038-118-127-128-134-139-239-290700-
NORTH FLORIDA

CITY           SKY/WX    TMP DP  RH WIND       PRES   REMARKS
MARIANNA       CLOUDY    69  69 100 NE6       29.97S FOG
TALLAHASSEE    CLOUDY    75  72  90 SW6       29.97F
PERRY          FOG       73  72  97 CALM      29.97F VSB 1/4
LIVE OAK       CLOUDY    73  73 100 CALM      30.00F
CROSS CITY       N/A     69  67  93 CALM      29.98F
LAKE CITY      FOG       70  70 100 SW3       30.00S VSB 1
GAINESVILLE    CLEAR     66  64  93 W5        29.99F
WILLISTON      FAIR      70  70 100 CALM      30.00F
PALATKA        MOCLDY    66  66 100 CALM      29.99S
MAYPORT NAS    CLEAR     71  67  87 SW3       29.97F
JACKSONVILLE   PTCLDY    68  66  93 W7        29.97F
JAX NAS        CLEAR     74  66  76 W8        29.98F
JAX CECIL      CLEAR     64  64 100 CALM      29.99F
FERNANDINA BEA FAIR      73  68  83 SW6       29.96S
ST AUGUSTINE   CLEAR     72  66  81 SW7       29.98F
PALM COAST     FAIR      70  68  95 SW3       29.98F

STATION/POSITION SKY/WX   TEMP    WIND        PRES    WAVE   SWELL
                          AIR SEA DIR/SP/G            HT/PER HT/PER
                          (F)     (DEG/KT/KT) (MB)    (FT/S) (FT/S)
SHELL POINT                75     220/  8/  9 1014.0
KEATON BEACH               76     230/  6/  7 1014.5F
CEDAR KEY                  76     250/  4/  6 1016.0F
FERNANDINA                 74 73  180/  2/  4 1015.1S
30.7N   81.3W                 72                N/A     2/11
MAYPORT                    75 72  240/  3/  4 1015.2F
ST AUGUSTINE               73 69  220/  5/  5 1015.7F

$$
FLZ040-043>046-052-053-057-058-063-144-290700-
INTERIOR CENTRAL FLORIDA

CITY           SKY/WX    TMP DP  RH WIND       PRES   REMARKS
OCALA          CLEAR     66  64  94 CALM      29.99F
THE VILLAGES     N/A     70  68  94 CALM      29.90F
LEESBURG       CLEAR     71  68  90 CALM      30.00F
SANFORD        CLEAR     74  68  81 SW3       29.99F
ORLANDO EXEC   CLEAR     74  69  85 S5        29.99F
ORLANDO INTL   CLEAR     70  67  90 S3        29.99F
WINTER HAVEN   CLEAR     72  68  87 CALM      30.00F
LAKELAND       CLEAR     70  66  88 CALM      30.00F
BARTOW         FAIR      66  66 100 CALM      30.00F
OKEECHOBEE     CLOUDY    73  70  88 CALM      30.00F

$$
FLZ041-047-054-059-064-141-147-290700-
EAST CENTRAL FLORIDA

CITY           SKY/WX    TMP DP  RH WIND       PRES   REMARKS
DAYTONA BEACH  CLEAR     71  70  96 S3        29.99F
DELAND           N/A     72  68  88 SW3       30.00F
MELBOURNE      PTCLDY    74  67  78 S3        29.99F
VERO BEACH     PTCLDY    73  68  84 W5        30.00F
FT PIERCE      MOCLDY    70  68  93 W5        30.00S
STUART         PTCLDY    75  70  83 CALM      30.01S

STATION/POSITION SKY/WX   TEMP    WIND        PRES    WAVE   SWELL
                          AIR SEA DIR/SP/G            HT/PER HT/PER
                          (F)     (DEG/KT/KT) (MB)    (FT/S) (FT/S)
28.5N   80.2W              77 77  200/ 10/ 10 1016.0F
28.9N   78.5W              75 76  170/ 10/ 12 1016.1F
TRIDENT PIER               76 79  210/  8/  9 1016.1F
28.4N   80.5W                 77                N/A     2/12
27.5N   80.2W                 77                N/A     2/11   2/11

$$
FLZ050-056-061-142-242-148-248-149-249-151-251-155-255-
160-260-290700-
WEST CENTRAL FLORIDA

CITY           SKY/WX    TMP DP  RH WIND       PRES   REMARKS
CRYSTAL RIVER  FAIR      68  66  94 CALM      29.99S
INVERNESS      FAIR      64  64 100 CALM      30.00F
BROOKSVILLE    CLEAR     68  66  93 CALM      30.00F
ZEPHYRHILLS    FAIR      65  62  87 CALM      30.00F
CLEARWATER AIR FAIR      72  70  94 CALM      29.98F
ST PETE CLEARW CLEAR     75  70  84 E5        29.98F
TAMPA INTL     CLEAR     75  68  78 E5        29.99F
TAMPA EXEC     CLEAR     70  66  88 CALM      30.00F
PLANT CITY     CLEAR     70  70 100 CALM      30.01F
PETER O KNIGHT CLEAR     73  70  88 E5        29.99F
ST PETERSBURG  CLEAR     77  69  76 SE9       29.97F
SARASOTA       CLEAR     72  66  81 E6        29.97F
VENICE         NOT AVBL

STATION/POSITION SKY/WX   TEMP    WIND        PRES    WAVE   SWELL
                          AIR SEA DIR/SP/G            HT/PER HT/PER
                          (F)     (DEG/KT/KT) (MB)    (FT/S) (FT/S)
27.3N   84.2W                 80                N/A     2/ 5
CLEARWATER BEACH           76 79   20/  1/  3 1015.5F
MIDDLE TAMPA BAY NOT AVBL
VENICE                     74 80   30/  6/  7 1014.9F

$$
FLZ066-069-070-075>078-162-262-165-265-290700-
SOUTHWEST FLORIDA AND KEYS

CITY           SKY/WX    TMP DP  RH WIND       PRES   REMARKS
PUNTA GORDA    PTCLDY    70  69  97 CALM      30.00F
FT MYERS       CLEAR     75  67  76 CALM      29.97F
SOUTHWEST INTL CLEAR     75  67  76 CALM      29.97F
NAPLES         MOCLDY    78  71  79 N5        29.97F
MARCO ISLAND   MOCLDY    73  68  83 CALM      29.98F
MARATHON       PTCLDY    78  71  79 E5        29.97F
KEY WEST NAS   PTCLDY    79  70  74 E12       29.97F
KEY WEST INTL  PTCLDY    77  72  84 E10       29.97F

STATION/POSITION SKY/WX   TEMP    WIND        PRES    WAVE   SWELL
                          AIR SEA DIR/SP/G            HT/PER HT/PER
                          (F)     (DEG/KT/KT) (MB)    (FT/S) (FT/S)
NAPLES                        82              1015.6F
26.0N   85.6W              78 80  110/  8/ 10 1014.8F   2/ 6   2/ 6
DRY TORTUGAS               78      90/ 12/ 13 1014.6F
SAND KEY                   79                 1015.2F
LONG KEY                   79 81  110/ 10/ 11 1016.1F

$$
FLZ067-068-071>074-168-172>174-290700-
SOUTHEAST FLORIDA

CITY           SKY/WX    TMP DP  RH WIND       PRES   REMARKS
W PALM BEACH   PTCLDY    76  67  73 S3        29.99F
FT LAUDER-EXEC CLEAR     76  67  73 CALM      29.99F
FT LAUDERDALE  PTCLDY    77  68  73 SE6       29.98F
POMPANO BEACH  PTCLDY    74  69  85 SE5       29.99F
PEMBROKE PINES PTCLDY    75  68  78 CALM      30.00F
OPA LOCKA      PTCLDY    75  68  78 CALM      29.99F
MIAMI          PTCLDY    75  69  81 CALM      29.99F
WEST KENDALL   PTCLDY    74  69  85 E3        29.99F
HOMESTEAD      NOT AVBL

STATION/POSITION SKY/WX   TEMP    WIND        PRES    WAVE   SWELL
                          AIR SEA DIR/SP/G            HT/PER HT/PER
                          (F)     (DEG/KT/KT) (MB)    (FT/S) (FT/S)
PORT EVERGLADES            78     130/  6/  9 1015.8F
VIRGINIA KEY               78 81  110/  6/  7 1016.2F
LAKE WORTH                 77 80  130/  8/ 10 1015.8F
SETTLEMENT POINT           75     140/  5/  6 1016.2F

$$





USA.gov is the U.S. government's official web portal to all federal, state and local government web resources and services.